Content
SEND FEEDBACK

Daily
Averages
Monthly
Summary
Canada

MONTREAL, QUEBEC


Home > North America > Canada > Quebec
Elevation: 118 feet     Latitude: 45 28N     Longitude: 073 45W

WEATHER
 
SELECT A DAY
Number of Records: 198,844;   Date Range: 1/1/95 - 9/21/14
 
SHARE

PRINT THIS DATA

[ ← Previous Day ]
WEATHER ALMANAC - JANUARY 6, 2013
[ Next Day → ]
[ °C ]   °F
Weather ElementAverageHighLow
Temperature16.5 °F19.4 °F (4:00 am)12.2 °F (8:12 am)
Dewpoint6.3 °F16 °F (7:00 pm) (7:00 pm)
Humidity84.1 %93 % (7:00 am)63 % (1:00 am)
Wind Speed10.8 mph18.4 mph (9:00 pm)
Weather ElementAverage
Visibility3.4 mi
Wind DirectionSSW (203.3 °)

Weather ElementTotal
Precipitation---
Heating Degree Days49.2 (Base 65)
Averaged from 55 records on January 6, 2013
WEATHER CONDITIONS BREAKOUT
WIND DIRECTION BREAKOUT
WEATHER BY HOUR - JANUARY 6, 2013
[ °C ]   °F
Local TimeTemperatureDewpointHumidityBarometerVisibilityWind DirectionWind SpeedGust SpeedPrecipitationEventsConditions
1:00 AM17.0 °F10.0 °F63 %30.15 in15.0 miEast (80°)5.8 mphSnowLight Snow
1:00 AM17.6 °F10.4 °F73 %30.15 in15.0 miENE (70°)4.6 mphSnowLight Snow
2:00 AM17.6 °F10.4 °F73 %30.12 in15.0 miEast (100°)5.8 mphSnowLight Snow
3:00 AM17.6 °F12.2 °F79 %30.07 in15.0 miNE (50°)6.9 mphSnowLight Snow
4:00 AM19.4 °F14.0 °F80 %30.03 in15.0 miENE (60°)8.1 mphSnowLight Snow
5:00 AM19.4 °F14.0 °F80 %30.00 in15.0 miNE (40°)8.1 mphSnowLight Snow
6:00 AM17.6 °F14.0 °F86 %30.00 in2.5 miNorth (360°)6.9 mphSnowLight Snow
7:00 AM14.0 °F11.0 °F84 %29.99 in2.0 miNorth (10°)8.1 mphSnowLight Snow
7:00 AM14.0 °F12.2 °F93 %29.99 in2.0 miNorth (10°)6.9 mphSnowLight Snow
8:00 AM14.0 °F10.4 °F86 %29.97 in2.0 miNorth (10°)10.4 mphSnowLight Snow
8:12 AM12.2 °F0.0 °F4.0 miNorth (10°)9.2 mphSnowLight Snow
8:39 AM14.0 °F0.0 °F2.2 miNNE (20°)9.2 mphSnowLight Snow
9:00 AM14.0 °F10.4 °F86 %29.96 in2.0 miNNE (20°)9.2 mphSnowLight Snow
9:14 AM14.0 °F0.0 °F1.2 miNorth (10°)8.1 mphSnowLight Snow
9:33 AM14.0 °F0.0 °F1.5 miNorth (10°)8.1 mphSnowLight Snow
9:46 AM14.0 °F0.0 °F1.2 miNNE (20°)9.2 mphSnowLight Snow
10:00 AM14.0 °F10.4 °F86 %29.96 in1.2 miNNE (20°)10.4 mphSnowLight Snow
11:00 AM14.0 °F10.4 °F86 %29.94 in2.5 miNorth (360°)10.4 mphSnowLight Snow
11:20 AM14.0 °F0.0 °F4.0 miNorth (360°)11.5 mphSnowLight Snow
11:35 AM14.0 °F0.0 °F5.0 miNorth (360°)10.4 mphSnowLight Snow
12:00 PM14.0 °F10.4 °F86 %29.92 in8.0 miNNE (20°)8.1 mphSnowLight Snow
12:48 PM14.0 °F0.0 °F1.0 miNNE (30°)11.5 mphSnowLight Snow
1:00 PM15.0 °F12.0 °F80 %29.90 in1.0 miNNE (30°)10.4 mphSnowLight Snow
1:00 PM14.0 °F12.2 °F93 %29.90 in1.0 miNNE (20°)11.5 mphSnowLight Snow
1:22 PM15.8 °F0.0 °F1.2 miNNE (20°)10.4 mphSnowLight Snow
1:42 PM15.8 °F0.0 °F1.0 miNNE (20°)11.5 mphSnowLight Snow
2:00 PM15.8 °F12.2 °F86 %29.91 in1.0 miNNE (20°)9.2 mphSnowLight Snow
2:11 PM15.8 °F0.0 °F0.0 mi9.2 (2013°)0.00 inLight Snow20
2:35 PM15.8 °F0.0 °F1.5 miNNE (20°)9.2 mphSnowLight Snow
2:48 PM15.8 °F0.0 °F2.0 miNNE (20°)9.2 mphSnowLight Snow
3:00 PM15.8 °F14.0 °F93 %29.92 in1.8 miNNE (20°)10.4 mphSnowLight Snow
3:10 PM15.8 °F0.0 °F1.0 miNNE (20°)10.4 mphSnowLight Snow
3:33 PM15.8 °F0.0 °F0.0 mi10.4 (2013°)0.00 inLight Snow20
3:51 PM15.8 °F0.0 °F0.0 mi13.8 (2013°)0.00 inLight Snow30
4:00 PM15.8 °F14.0 °F93 %29.93 in1.0 miNNE (30°)10.4 mphSnowLight Snow
4:35 PM17.6 °F0.0 °F0.0 mi10.4 (2013°)0.00 inLight Snow30
4:45 PM17.6 °F0.0 °F1.0 miNNE (30°)10.4 mphSnowLight Snow
5:00 PM17.6 °F14.0 °F86 %29.94 in1.0 miNNE (30°)11.5 mphSnowLight Snow
5:15 PM17.6 °F0.0 °F1.5 miNNE (30°)11.5 mphSnowLight Snow
5:29 PM17.6 °F0.0 °F1.0 miNNE (30°)10.4 mphSnowLight Snow
6:00 PM19.4 °F15.8 °F86 %29.95 in1.0 miNNE (30°)10.4 mphSnowLight Snow
6:11 PM19.4 °F0.0 °F2.0 miNE (40°)10.4 mphSnowLight Snow
6:25 PM19.4 °F0.0 °F4.0 miNNE (30°)11.5 mphSnowLight Snow
6:39 PM19.4 °F0.0 °F1.2 miNNE (30°)12.7 mphSnowLight Snow
7:00 PM19.0 °F16.0 °F82 %29.97 in2.0 miNNE (30°)16.1 mphSnowLight Snow
7:00 PM19.4 °F15.8 °F86 %29.97 in2.0 miNNE (30°)17.3 mphSnowLight Snow
7:08 PM19.4 °F0.0 °F1.2 miNNE (30°)15.0 mphSnowLight Snow
7:30 PM19.4 °F0.0 °F2.0 miNNE (30°)13.8 mphSnowLight Snow
7:48 PM19.4 °F0.0 °F1.5 miNNE (30°)16.1 mphSnowLight Snow
8:00 PM19.4 °F15.8 °F86 %29.98 in1.5 miNNE (30°)16.1 mphSnowLight Snow
9:00 PM17.6 °F14.0 °F86 %30.01 in1.0 miNNE (30°)18.4 mphSnowLight Snow
9:09 PM17.6 °F0.0 °F2.0 miNNE (30°)15.0 mphSnowLight Snow
9:45 PM17.6 °F0.0 °F4.0 miNorth (360°)12.7 mphSnowLight Snow
10:00 PM17.6 °F14.0 °F86 %30.03 in4.0 miNNE (20°)15.0 mphSnowLight Snow
11:00 PM17.6 °F14.0 °F86 %30.06 in6.0 miNorth (10°)16.1 mphSnowLight Snow
Hourly data recorded from CYUL, located miles away from Montreal, Quebec







STORIES FROM OUR PARTNERS